Home > Time Zones > World Clock > Weather > Russia > Ufa > Past weeks

Flag for Russia Weather past 2 weeks in Ufa, Russia

Now
43 °F

Fog.


Feels Like: 41 °F
Forecast: 40 / 52 °F
Wind: 3 mph from Southwest

Location: Ufa

Current Time: Sep 15, 2014 at 8:33:00 AM

Latest Report: Sep 15, 2014 at 8:00 AM


Visibility: 2 mi

Pressure: 30.12 "Hg

Humidity: 100%

Dew point: 43 °F

Location of UfaLocation

Historic Weather in Ufa — Graph

°F

Ufa temperature yesterday

Maximum temperature yesterday: 64 °F (at 3:30 PM)
Minimum temperature yesterday: 43 °F (at 6:30 AM)
Average temperature yesterday: 54 °F

Past Weeks' High & Low Weather Summary

 TemperatureHumidityPressure
High72 °F (Sep 12, 4:30 PM)100% (Sep 3, 6:00 AM)30.42 "Hg (Sep 3, 6:00 AM)
Low32 °F (Sep 9, 7:00 AM)33% (Sep 13, 5:00 PM)29.83 "Hg (Sep 6, 11:00 AM)
Average54 °F75%30.13 "Hg
* Reported Aug 31 7:00 AM — Sep 15 7:30 AM, Ufa, Weather by CustomWeather, © 2014

Note: Actual official high and low records may vary slightly from our data, if they occured in-between our weather recording intervals... More about our weather records

Advertising

Ufa weather history for previous 24 hours

 ConditionsComfort  
Time TempWeatherWind HumidityBarometerVisibility
7:30 AM
Sep 15
41 °FFog.6 mph100%30.12 "Hg1 mi
7:00 AM45 °FFog.3 mph93%30.12 "Hg0 mi
6:30 AM45 °FFog.1 mph100%30.12 "Hg1 mi
6:00 AM45 °FFog.No wind93%30.12 "Hg0 mi
5:30 AM45 °FFog.1 mph100%30.12 "Hg0 mi
5:00 AM45 °FFog.No wind100%30.12 "Hg0 mi
4:30 AM46 °FFog.3 mph100%30.12 "Hg0 mi
4:00 AM46 °FFog.6 mph93%30.12 "Hg2 mi
3:30 AM46 °FFog.3 mph100%30.12 "Hg1 mi
3:00 AM46 °FFog.6 mph100%30.12 "Hg1 mi
2:30 AM48 °FClear.8 mph94%30.12 "Hg10 mi
2:00 AM48 °FClear.6 mph94%30.12 "Hg10 mi
1:30 AM48 °FPassing clouds.6 mph100%30.12 "HgN/A
1:00 AM48 °FPassing clouds.6 mph100%30.12 "HgN/A
12:30 AM50 °FPassing clouds.6 mph94%30.12 "HgN/A
12:00 AM50 °FPassing clouds.8 mph94%30.12 "HgN/A
11:30 PM
Sep 14
50 °FPassing clouds.6 mph88%30.12 "HgN/A
11:00 PM52 °FPassing clouds.8 mph88%30.12 "HgN/A
10:30 PM52 °FPassing clouds.8 mph88%30.12 "HgN/A
10:00 PM54 °FPassing clouds.10 mph88%30.12 "HgN/A
9:30 PM55 °FPassing clouds.8 mph82%30.12 "HgN/A
9:00 PM57 °FPassing clouds.8 mph82%30.12 "HgN/A
8:30 PM57 °FPartly sunny.8 mph82%30.09 "HgN/A
8:00 PM59 °FOvercast.10 mph82%30.09 "HgN/A
7:30 PM59 °FOvercast.6 mph82%30.09 "HgN/A
7:00 PM61 °FPartly sunny.8 mph77%30.09 "HgN/A
6:30 PM63 °FPartly sunny.10 mph73%30.09 "HgN/A
6:00 PM63 °FPartly sunny.10 mph73%30.09 "HgN/A
5:30 PM63 °FPartly sunny.8 mph73%30.09 "HgN/A
5:00 PM63 °FPartly sunny.10 mph73%30.09 "HgN/A
4:30 PM64 °FPartly sunny.6 mph68%30.09 "HgN/A
4:00 PM64 °FPartly sunny.6 mph68%30.07 "HgN/A
3:30 PM64 °FOvercast.6 mph68%30.07 "HgN/A
3:00 PM63 °FOvercast.3 mph73%30.07 "HgN/A
2:30 PM63 °FPartly sunny.6 mph73%30.07 "HgN/A
2:00 PM63 °FPartly sunny.3 mph73%30.07 "HgN/A
1:30 PM59 °FSprinkles. Partly sunny.6 mph77%30.07 "HgN/A
1:00 PM61 °FPartly sunny.6 mph68%30.07 "HgN/A
12:30 PM61 °FPartly sunny.6 mph68%30.07 "HgN/A
12:00 PM59 °FPartly sunny.8 mph68%30.07 "HgN/A
11:30 AM59 °FBroken clouds.6 mph68%30.07 "HgN/A
11:00 AM57 °FPassing clouds.3 mph72%30.07 "HgN/A
10:30 AM54 °FSunny.No wind77%30.07 "Hg10 mi
10:00 AM52 °FPassing clouds.3 mph82%30.07 "HgN/A
9:30 AM50 °FFog.3 mph82%30.07 "Hg2 mi
9:00 AM46 °FFog.1 mph87%30.07 "Hg2 mi
8:30 AM45 °FFog.3 mph93%30.07 "Hg2 mi
8:00 AM43 °FFog.6 mph93%30.07 "Hg2 mi
Weather by CustomWeather, © 2014

See weather overviewHow to use our weather pages